Preview of NWS' New Version of Forecast
This preview is not operational and should not be used for support decisions.

Regional Weather Roundup (RWR)

Issued by Philadelphia/Mt Holly (PHI)

                            
000
ASUS41 KPHI 180812
RWRPHI

REGIONAL WEATHER ROUNDUP
NATIONAL WEATHER SERVICE MOUNT HOLLY NJ
300 AM EST FRI JAN 18 2019

NOTE:  "FAIR" INDICATES FEW OR NO CLOUDS BELOW 12,000 FEET WITH NO
SIGNIFICANT WEATHER AND/OR OBSTRUCTIONS TO VISIBILITY.

 * = STATION DOES NOT REPORT PRECIPITATION (E.G. RAIN, SNOW, ETC.) 
        OR FOG.

NJZ015>026-180900-
SOUTHERN NEW JERSEY
  
CITY           SKY/WX    TMP DP  RH WIND       PRES   REMARKS
POMONA         LGT SNOW  30  29  96 N3        30.14F FOG              
WILDWOOD*      LGT RAIN  33  30  88 NE7       30.14F WCI  27          
MILLVILLE      LGT SNOW  30  28  92 NE3       30.14F FOG              
WRIGHTSTOWN    LGT SNOW  28  28 100 N3        30.12F FOG              
MOUNT HOLLY    LGT SNOW  29  26  89 CALM      30.16F FOG              
TRENTON        LGT SNOW  28  26  92 N3        30.16F FOG              

$$
NJZ001>014-180900-
NORTHERN NEW JERSEY
  
CITY           SKY/WX    TMP DP  RH WIND       PRES   REMARKS
SUSSEX         LGT SNOW  24  22  91 NE5       30.14F FOG     WCI  18  
ANDOVER*         N/A     25  22  88 CALM      30.14F                  
MORRISTOWN     LGT SNOW  27  25  93 CALM      30.17F                  
NEWARK         FLURRIES  28  25  88 N9        30.18F WCI  19          
TETERBORO      LGT SNOW  27  24  89 N8        30.17F FOG     WCI  19  
CALDWELL       LGT SNOW  25  24  96 NE3       30.17F FOG              
SOMERVILLE     LGT SNOW  28  26  92 CALM      30.15F FOG              
ALLAIRE*       LGT SNOW  31  28  89 N3        30.16F FOG              
TOMS RIVER*    FLURRIES  30  29  96 CALM      30.16F                  

$$
PAZ043-044-047-054-055-060>062-066>071-180900-
EASTERN PENNSYLVANIA
  
CITY           SKY/WX    TMP DP  RH WIND       PRES   REMARKS
PHILADELPHIA   LGT SNOW  30  27  88 NE5       30.16F FOG     WCI  25  
NORTH PHILA    LGT SNOW  30  26  85 NE5       30.18F FOG     WCI  25  
BLUE BELL*       N/A     28  28 100 CALM      30.16F                  
DOYLESTOWN     LGT SNOW  27  24  89 CALM      30.14F FOG              
QUAKERTOWN*    CLOUDY    27  25  93 CALM      30.13                   
PERKASIE*      CLOUDY    25  25 100 E5        30.14F WCI  19          
POTTSTOWN      CLOUDY    26  25  96 NE5       30.16F FOG     WCI  20  
LANCASTER      LGT SNOW  29  25  85 E5        30.12F FOG     WCI  24  
COATESVILLE    LGT SNOW  27  27 100 E7        30.12F WCI  19          
READING        FLURRIES  28  26  92 CALM      30.13F                  
ALLENTOWN      LGT SNOW  28  23  81 NE5       30.15F WCI  23          
MOUNT POCONO   LGT SNOW  20  19  96 E6        30.04F FOG     WCI  12  
HAZLETON       LGT SNOW N/A N/A N/A SE3       30.07F                  
LEHIGHTON      LGT SNOW  28  23  80 CALM      30.15F                  
WILKES BARRE   LGT SNOW  24  22  91 CALM      30.08F FOG              

$$
DEZALL-MDZ008-012-015-019-020-180900-
DELAWARE AND EASTERN MARYLAND
  
CITY           SKY/WX    TMP DP  RH WIND       PRES   REMARKS
WILMINGTON     CLOUDY    30  28  92 NE7       30.15F FOG     WCI  23  
DOVER          LGT SNOW  32  32 100 CALM      30.12F FOG              
GEORGETOWN     LGT RAIN  37  33  85 N3        30.12F                  
EASTON         MIX PCPN  33  32  96 NE5       30.15F WCI  29          
PATUXENT       CLOUDY    36  35  96 NE3       30.11                   
OCEAN CITY     CLOUDY    38  36  92 CALM      30.11F                  
WALLOPS ISLAND CLOUDY    38  34  85 E3        30.11F                  
SALISBURY      CLOUDY    35  34  96 CALM      30.11F                  

$$
PAZ001-021-NYZ056-072-MDZ011-DCZ001-180900-
OTHER NEARBY LOCATIONS
  
CITY           SKY/WX    TMP DP  RH WIND       PRES   REMARKS
HARRISBURG     LGT SNOW  27  24  89 E6        30.12F FOG     WCI  20  
STATE COLLEGE  LGT SNOW  26  25  96 CALM      30.02F                  
WILLIAMSPORT   LGT SNOW  26  22  84 E10       30.08F FOG     WCI  16  
BINGHAMTON     LGT SNOW  20  18  92 S6        30.00F FOG     WCI  12  
NEW YORK CITY  LGT SNOW  30  26  85 MISG      30.19  FOG              
BALTIMORE      LGT SNOW  31  30  96 E5        30.12F FOG     WCI  26  
WASHINGTON DC  FLURRIES  34  31  88 NE7       30.12F WCI  28          

$$